Podcast Category
Redskins Media - ESPN 980144 episodes available
Doc Walker, B. Mitchell & Scott Jackson107 episodes available
Chin Music with Al Galdi6 episodes available
2 Pt Lead w/ Nick Ashooh & Chase Hughes4 episodes available
The Morning Blitz with Al Galdi82 episodes available
Cooley and Kevin with Chris Cooley and Kevin Sheehan180 episodes available
The Steve Czaban Show110 episodes available
The Bram Weinstein Show66 episodes available
Redskins Press Conferences10 episodes available
ESPN 980 Rewind1 episodes available
ESPN 980 Videos9 episodes available
Cooley and Kevin Videos130 episodes available
The Bram Weinstein Show Videos14 episodes available
Inside the Locker Room Videos83 episodes available
The Steve Czaban Show Videos32 episodes available
Value Investor Show with Chris Swatta7 episodes available
INOVA Ask The Doctor2 episodes available
John Riggins Videos1 episodes available
Podcast Title
11-22-17 Cooley & Kevin HR 4 (37:35)
11-22-17 Cooley & Kevin HR 3 (40:58)
11-22-17 Cooley & Kevin HR 2 (37:56)
11-22-17 Cooley & Kevin HR 1 (44:25)
11-22-17 Cooley Film Breakdown - Redskins Defense WK 11 (58:39)
11-21-17 Cooley & Kevin HR 4 (38:38)
11-21-17 Cooley & Kevin HR 3 (36:20)
11-21-17 Cooley & Kevin HR 2 (42:17)
11-21-17 Cooley & Kevin HR 1 (42:16)
11-21-17 John Riggins (36:20)
11-21-17 Cooley Film Breakdown - Redskins Offense WK 11 (55:16)
11-20-17 Cooley & Kevin HR 4 (39:36)
11-20-17 Cooley & Kevin HR 3 (38:04)
11-20-17 Cooley & Kevin HR 2 (37:01)
11-20-17 Cooley & Kevin HR 1 (48:01)
11-17-17 Cooley & Kevin HR 4 (39:28)
11-17-17 Cooley & Kevin HR 3 (39:10)
11-17-17 Cooley & Kevin HR 2 (37:36)
11-17-17 Cooley & Kevin HR 1 (45:01)
11-17-17 Bobby Hebert (14:53)
11-16-17 Cooley & Kevin HR 4 (39:06)
11-16-17 Cooley & Kevin HR 3 (37:03)
11-16-17 Cooley & Kevin HR 2 (38:24)
11-16-17 Cooley & Kevin HR 1 (44:41)
11-16-17 John Riggins (37:03)
11-15-17 Cooley & Kevin HR 4 (33:59)
11-15-17 Cooley & Kevin HR 3 (44:14)
11-15-17 Cooley & Kevin HR 2 (35:00)
11-15-17 Cooley & Kevin HR 1 (47:02)
11-15-17 Cooley Film Breakdown - Redskins Defense WK 10 (30:09)
11-14-17 Cooley & Kevin HR 4 (39:44)
11-14-17 Cooley & Kevin HR 3 (37:29)
11-14-17 Cooley & Kevin HR 2 (39:58)
11-14-17 Cooley & Kevin HR 1 (44:48)
11-14-17 John Riggins (37:14)
11-14-17 Cooley Film Breakdown - Redskins Offense WK 10 (1:01:00)
11-13-17 Cooley & Kevin HR 4 (35:08)
11-13-17 Cooley & Kevin HR 3 (42:58)
11-13-17 Cooley & Kevin HR 2 (37:21)
11-13-17 Cooley & Kevin HR 1 (45:59)
11-13-17 Clinton Portis (9:49)
11-13-17 Josh Norman (10:51)
11-10-17 Cooley & Kevin HR 4 (37:01)
11-10-17 Cooley & Kevin HR 3 (37:15)
11-10-17 Cooley & Kevin HR 2 (42:21)
11-10-17 Cooley & Kevin HR 1 (42:07)
11-10-17 Kyle Rudolph (13:30)
11-09-17 Cooley & Kevin HR 4 (38:24)
11-09-17 Cooley & Kevin HR 3 (45:43)
11-09-17 Cooley & Kevin HR 2 (35:25)
11-09-17 Cooley & Kevin HR 1 (47:32)
11-09-17 John Riggins (45:43)
11-08-17 Cooley & Kevin HR 4 (41:05)
11-08-17 Cooley & Kevin HR 3 (41:04)
11-08-17 Cooley & Kevin HR 2 (43:06)
11-08-17 Cooley & Kevin HR 1 (41:06)
11-08-17 Mark Turgeon (13:47)
11-08-17 Cooley Film Breakdown - Redskins Defense WK 9 (20:00)
11-08-17 DeAngelo Hall (24:26)
11-08-17 Cooley Film Breakdown - Redskins Offense WK 9 (21:35)
11-07-17 Cooley & Kevin HR 4 (39:44)
11-07-17 Cooley & Kevin HR 3 (34:28)
11-07-17 Cooley & Kevin HR 2 (43:30)
11-07-17 Cooley & Kevin HR 1 (41:27)
11-07-17 John Riggins (34:28)
11-07-17 Cooley Film Breakdown - Kirk Cousins WK 9 (22:39)
11-06-17 Cooley & Kevin HR 4 (43:03)
11-06-17 Cooley & Kevin HR 3 (37:38)
11-06-17 Cooley & Kevin HR 2 (38:36)
11-06-17 Cooley & Kevin HR 1 (44:41)
11-03-17 Cooley & Kevin HR 4 (39:54)
11-03-17 Cooley & Kevin HR 3 (39:24)
11-03-17 Cooley & Kevin HR 2 (37:31)
11-03-17 Cooley & Kevin HR 1 (43:48)
11-03-17 Tim Leglar (19:22)
11-02-17 Cooley & Kevin HR 4 (38:29)
11-02-17 Cooley & Kevin HR 3 (38:16)
11-02-17 Cooley & Kevin HR 2 (40:34)
11-02-17 Cooley & Kevin HR 1 (43:34)
11-02-17 John Riggins (38:16)
11-02-17 Rex Grossman (19:23)
11-02-17 Cooley Film Breakdown - Redskins Defense WK 8 (25:27)
11-01-17 Cooley & Kevin HR 4 (36:00)
11-01-17 Cooley & Kevin HR 3 (45:23)
11-01-17 Cooley & Kevin HR 2 (34:04)
11-01-17 Cooley & Kevin HR 1 (45:44)
10-31-17 Cooley & Kevin HR 4 (35:47)
10-31-17 Cooley & Kevin HR 3 (40:54)
10-31-17 Cooley & Kevin HR 2 (41:08)
10-31-17 Cooley & Kevin HR 1 (42:43)
10-31-17 John Riggins (40:54)
10-31-17 Cooley Film Breakdown - Redskins Offense WK 8 (53:53)
10-30-17 Cooley & Kevin HR 4 (40:33)
10-30-17 Cooley & Kevin HR 3 (37:48)
10-30-17 Cooley & Kevin HR 2 (40:45)
10-30-17 Cooley & Kevin HR 1 (42:02)
10-27-17 Cooley & Kevin HR 4 (41:20)
10-27-17 Cooley & Kevin HR 3 (36:41)
10-27-17 Cooley & Kevin HR 2 (38:47)
10-27-17 Cooley & Kevin HR 1 (41:11)
10-26-17 Cooley & Kevin HR 4 (39:54)
10-26-17 Cooley & Kevin HR 3 (37:04)
10-26-17 Cooley & Kevin HR 2 (39:59)
10-26-17 Cooley & Kevin HR 1 (44:33)
10-26-17 Steve Buckhantz (11:30)
10-26-17 John Riggins (37:04)
10-26-17 Cooley Film Breakdown - Redskins Defense WK 7 (42:00)
10-25-17 Cooley & Kevin HR 4 (38:21)
10-25-17 Cooley & Kevin HR 3 (41:54)
10-25-17 Cooley & Kevin HR 2 (40:25)
10-25-17 Cooley & Kevin HR 1 (42:46)
10-25-17 Michael Rapaport (12:39)
10-25-17 Cooley Film Breakdown - Redskins Offense WK 7 (1:07:04)
10-24-17 Cooley & Kevin HR 4 (39:15)
10-24-17 Cooley & Kevin HR 3 (39:24)
10-24-17 Cooley & Kevin HR 2 (40:07)
10-24-17 Cooley & Kevin HR 1 (42:47)
10-24-17 John Riggins (39:24)
10-19-17 Ziggy Hood (13:24)
10-13-17 Cooley & Kevin HR 1 (44:09)